Location: Newark
(34.1333°N, 7.9667°W)
Time: 17:10:48
(UTC+00:00)

BUGSAT 1 - Visible Passes

Search period start: 14 April 2024 00:00
Search period end: 24 April 2024 00:00
Orbit: 533 x 582 km, 98.1° (Epoch: 13 April)

Date Brightness Start Highest point End Pass type
(mag) Time Alt. Az. Time Alt. Az. Time Alt. Az.
14 Apr ? 20:27:01 10° S 20:30:45 50° W 20:34:36 10° NNW visible
15 Apr ? 20:25:02 10° S 20:28:50 54° W 20:32:41 10° NNW visible
16 Apr ? 20:23:03 10° S 20:26:52 58° W 20:30:46 10° NNW visible
17 Apr ? 20:21:04 10° S 20:24:55 63° W 20:28:50 10° NNW visible
18 Apr ? 20:19:04 10° S 20:22:56 68° WSW 20:26:53 10° NNW visible
19 Apr ? 20:17:05 10° S 20:20:57 73° WSW 20:24:55 10° NNW visible
20 Apr ? 20:15:04 10° S 20:18:57 78° WSW 20:22:56 10° NNW visible
21 Apr ? 20:13:02 10° SSE 20:16:57 84° W 20:20:56 10° NNW visible
22 Apr ? 20:11:01 10° SSE 20:14:56 90° W 20:18:56 10° NNW visible
23 Apr ? 20:08:59 10° SSE 20:12:54 84° ENE 20:16:54 10° N visible
